| time (UTC) | temp C | wind direction | speed KPH | gust KPH | rain 1hr cm | rain 24hr cm | rain mn cm | humidity % | barometer mb |
| 20260504231558 | 13 | 195 | 8.0 | 14.5 | 0.00 | 0.05 | 0.05 | 63 | 1006.1 |
| 20260504230059 | 14 | 167 | 6.4 | 12.9 | 0.00 | 0.05 | 0.05 | 60 | 1006.0 |
| 20260504224602 | 15 | 179 | 4.8 | 12.9 | 0.00 | 0.05 | 0.05 | 59 | 1005.8 |
| 20260504223058 | 15 | 204 | 8.0 | 14.5 | 0.00 | 0.05 | 0.05 | 58 | 1005.8 |
| 20260504221600 | 15 | 225 | 8.0 | 14.5 | 0.00 | 0.05 | 0.05 | 58 | 1005.8 |
| 20260504220123 | 15 | 240 | 11.3 | 19.3 | 0.00 | 0.05 | 0.05 | 57 | 1005.7 |
| 20260504214600 | 15 | 229 | 11.3 | 22.5 | 0.00 | 0.05 | 0.05 | 57 | 1005.6 |
| 20260504213102 | 16 | 200 | 9.7 | 20.9 | 0.00 | 0.05 | 0.05 | 57 | 1005.4 |
| 20260504211600 | 16 | 208 | 14.5 | 22.5 | 0.00 | 0.05 | 0.05 | 56 | 1005.5 |
| 20260504210059 | 16 | 180 | 11.3 | 22.5 | 0.00 | 0.05 | 0.05 | 57 | 1005.3 |
| 20260504204559 | 16 | 226 | 11.3 | 19.3 | 0.00 | 0.05 | 0.05 | 57 | 1005.3 |
| 20260504203057 | 16 | 222 | 14.5 | 19.3 | 0.00 | 0.05 | 0.05 | 60 | 1005.2 |
| 20260504201559 | 15 | 209 | 14.5 | 29.0 | 0.00 | 0.05 | 0.05 | 59 | 1005.1 |
| 20260504194559 | 15 | 227 | 14.5 | 27.4 | 0.00 | 0.10 | 0.05 | 64 | 1005.0 |
| 20260504193059 | 14 | 273 | 16.1 | 24.1 | 0.00 | 0.10 | 0.05 | 69 | 1005.2 |
| 20260504191600 | 13 | 196 | 14.5 | 22.5 | 0.03 | 0.10 | 0.05 | 78 | 1005.3 |
| 20260504190110 | 10 | 204 | 12.9 | 19.3 | 0.05 | 0.10 | 0.05 | 86 | 1005.7 |
| 20260504184616 | 9 | 229 | 11.3 | 22.5 | 0.05 | 0.20 | 0.05 | 83 | 1005.9 |
| 20260504183107 | 9 | 246 | 17.7 | 25.7 | 0.05 | 0.20 | 0.05 | 79 | 1006.1 |
| 20260504181558 | 10 | 217 | 14.5 | 24.1 | 0.03 | 0.18 | 0.03 | 76 | 1006.0 |
| 20260504174610 | 11 | 224 | 19.3 | 38.6 | 0.00 | 0.33 | 0.00 | 63 | 1005.4 |
| 20260504173104 | 10 | 190 | 17.7 | 32.2 | 0.00 | 0.33 | 0.00 | 63 | 1005.4 |
| 20260504171600 | 11 | 221 | 22.5 | 38.6 | 0.00 | 0.33 | 0.00 | 61 | 1005.4 |
| 20260504170109 | 13 | 222 | 20.9 | 33.8 | 0.00 | 0.33 | 0.00 | 60 | 1005.1 |
| 20260504150103 | 13 | 197 | 12.9 | 24.1 | 0.00 | 0.81 | 0.00 | 51 | 1006.2 |
| 20260504120107 | 8 | 213 | 9.7 | 24.1 | 0.00 | 1.57 | 0.00 | 61 | 1007.4 |
| 20260504081557 | 2 | 241 | 12.9 | 19.3 | 0.00 | 2.29 | 0.00 | 78 | 1006.5 |
| 20260504044604 | 3 | 284 | 12.9 | 22.5 | 0.00 | 2.54 | 0.00 | 73 | 1005.1 |
| 20260504043102 | 3 | 245 | 12.9 | 22.5 | 0.00 | 2.54 | 0.00 | 72 | 1005.2 |
| 20260504041556 | 3 | 252 | 14.5 | 22.5 | 0.00 | 2.54 | 0.00 | 71 | 1005.1 |
| 20260504040104 | 3 | 257 | 12.9 | 24.1 | 0.00 | 2.54 | 0.00 | 70 | 1004.9 |
| 20260504034616 | 3 | 275 | 14.5 | 22.5 | 0.00 | 2.54 | 2.54 | 69 | 1004.7 |
| 20260504033128 | 4 | 258 | 14.5 | 25.7 | 0.00 | 2.54 | 2.54 | 68 | 1004.5 |
| 20260504031604 | 4 | 277 | 12.9 | 24.1 | 0.00 | 2.54 | 2.54 | 67 | 1004.5 |
| 20260504030104 | 4 | 263 | 14.5 | 29.0 | 0.00 | 2.54 | 2.54 | 66 | 1004.3 |
| 20260504024559 | 5 | 271 | 16.1 | 33.8 | 0.00 | 2.54 | 2.54 | 66 | 1004.2 |
| 20260504023105 | 5 | 293 | 17.7 | 35.4 | 0.00 | 2.54 | 2.54 | 65 | 1004.0 |
| 20260504021600 | 5 | 278 | 17.7 | 30.6 | 0.00 | 2.54 | 2.54 | 66 | 1003.9 |
| 20260504014600 | 5 | 290 | 19.3 | 33.8 | 0.00 | 2.54 | 2.54 | 67 | 1003.6 |
| 20260504013110 | 5 | 275 | 17.7 | 29.0 | 0.00 | 2.54 | 2.54 | 71 | 1003.5 |
| 20260504011559 | 5 | 250 | 16.1 | 27.4 | 0.00 | 2.54 | 2.54 | 78 | 1003.2 |
| 20260504010113 | 5 | 292 | 17.7 | 32.2 | 0.00 | 2.54 | 2.54 | 84 | 1003.0 |
| 20260504004624 | 5 | 277 | 11.3 | 17.7 | 0.00 | 2.54 | 2.54 | 90 | 1002.9 |
| 20260504003059 | 5 | 256 | 8.0 | 12.9 | 0.00 | 2.54 | 2.54 | 89 | 1002.5 |
| 20260504001613 | 6 | 290 | 9.7 | 16.1 | 0.00 | 2.54 | 2.54 | 88 | 1002.3 |
| 20260504000110 | 6 | 298 | 9.7 | 19.3 | 0.00 | 2.54 | 2.54 | 87 | 1002.1 |
| 20260503234610 | 6 | 276 | 12.9 | 22.5 | 0.00 | 2.54 | 2.54 | 87 | 1001.9 |
| 20260503233107 | 6 | 292 | 9.7 | 22.5 | 0.00 | 2.54 | 2.54 | 88 | 1001.7 |